Temperature
15 15 15 15 15 15 14 14 13 14 14 15 15 14 14 14 13 13 13 12 11 11 10 10 9 9 9 8 8 8 8 7 7 7 7 7 6 6 6 6 6 5 5 5
13 14 14 14 14 14 14 14 14 14 14 15 14 14 13 12 12 12 12 11 11 10 9 9 8 8 8 7 7 7 7 7 7 6 6 6 6 5 5 5 5 4 4 4
11 13 12 12 14 14 14 15 14 13 14 14 12 12 12 12 12 11 11 10 9 9 8 8 7 7 7 6 6 6 6 6 6 5 5 5 5 5 4 4 4 4 4 3
10 11 9 12 15 15 14 14 14 13 13 12 12 12 12 12 11 10 9 9 8 8 7 7 7 6 6 6 6 5 5 5 5 4 4 4 4 4 3 3 3 3 3 2
9 9 10 13 14 14 13 13 13 12 12 12 12 11 11 11 10 9 8 8 7 7 7 6 6 6 5 5 5 4 4 4 4 3 3 3 3 2 2 2 2 1 1 1
9 8 8 13 12 13 12 11 11 11 11 11 10 7 8 9 8 8 7 7 7 6 6 5 5 5 4 4 4 3 3 3 3 2 2 2 1 1 1 0 0 0 0 0
8 8 9 13 11 12 11 10 11 11 10 10 8 7 8 8 7 7 6 6 6 5 5 5 4 4 3 3 3 3 2 2 2 1 1 0 0 0 -0 -0 -0 -0 -0 -0
8 8 9 12 12 11 11 11 11 10 9 8 8 7 7 6 6 6 5 5 5 4 4 4 4 3 3 3 2 2 1 1 1 0 -0 -1 -1 -1 -1 -1 -1 -1 -1 -1
10 10 13 13 12 12 11 10 9 8 8 7 7 6 6 5 5 5 4 4 4 4 3 3 3 2 2 2 1 1 0 -0 -0 -1 -1 -1 -2 -2 -2 -2 -2 -2 -2 -2
10 11 12 12 12 10 9 8 8 7 7 6 6 5 5 4 4 4 4 3 3 3 3 2 2 2 1 1 0 -0 -1 -1 -1 -2 -2 -2 -2 -2 -2 -2 -2 -2 -2 -2
9 9 11 11 9 8 7 7 6 6 5 5 5 4 4 3 3 3 3 3 2 2 2 1 1 1 0 -0 -1 -1 -2 -2 -2 -2 -3 -3 -3 -3 -3 -3 -3 -3 -3 -3
8 9 8 8 7 7 6 6 5 5 4 4 4 3 3 3 3 3 2 2 2 1 1 0 0 -0 -1 -1 -2 -2 -2 -2 -3 -3 -3 -3 -4 -3 -3 -3 -3 -3 -3 -4
8 7 7 6 6 6 5 5 4 4 3 3 3 3 3 2 2 2 2 1 1 0 0 -0 -1 -1 -1 -2 -2 -3 -3 -3 -3 -4 -4 -4 -4 -4 -4 -3 -3 -3 -3 -4
6 6 5 5 5 4 4 4 3 3 3 3 2 2 2 2 2 1 1 0 0 -0 -1 -1 -1 -1 -2 -3 -3 -3 -4 -4 -4 -4 -4 -4 -4 -4 -4 -4 -4 -4 -4 -4
5 5 4 4 4 4 3 3 3 2 2 2 2 2 1 1 1 0 0 -0 -1 -1 -1 -1 -2 -2 -3 -3 -4 -4 -4 -4 -4 -4 -4 -4 -4 -4 -4 -4 -4 -4 -4 -4
4 4 4 4 3 3 3 2 2 2 2 1 1 1 0 0 -0 -0 -1 -1 -1 -2 -2 -2 -3 -3 -4 -4 -5 -5 -5 -5 -5 -5 -5 -4 -4 -4 -4 -5 -5 -5 -5 -5
4 3 3 3 3 3 2 2 2 1 1 1 1 0 -0 -0 -1 -1 -1 -1 -2 -2 -2 -3 -3 -4 -4 -5 -5 -5 -5 -5 -5 -5 -5 -5 -5 -5 -5 -5 -5 -5 -5 -5
3 3 3 3 2 2 2 2 1 1 1 0 0 -0 -0 -1 -1 -1 -1 -2 -2 -3 -3 -3 -4 -5 -5 -5 -5 -5 -5 -5 -5 -5 -5 -5 -5 -5 -5 -5 -5 -5 -5 -5
3 3 3 2 2 2 2 1 1 1 0 0 -0 -0 -1 -1 -1 -2 -2 -3 -3 -4 -4 -4 -5 -5 -5 -5 -6 -6 -5 -5 -5 -5 -5 -5 -5 -5 -5 -5 -5 -5 -5 -6
3 2 2 2 2 2 1 1 1 0 0 -0 -0 -1 -1 -1 -2 -2 -3 -3 -4 -4 -5 -5 -5 -5 -6 -6 -6 -6 -5 -5 -5 -5 -5 -5 -5 -5 -5 -5 -5 -6 -6 -6
2 2 2 2 1 1 1 1 0 0 0 -0 -1 -1 -1 -2 -2 -3 -4 -4 -4 -4 -5 -5 -6 -6 -6 -6 -6 -5 -5 -5 -5 -5 -5 -5 -5 -5 -6 -6 -6 -6 -6 -6
1 1 1 1 1 1 0 0 -0 -0 -0 -1 -1 -1 -2 -2 -3 -3 -4 -4 -4 -5 -6 -6 -6 -6 -6 -6 -6 -5 -5 -5 -5 -5 -5 -6 -6 -6 -6 -6 -6 -6 -6 -6
1 1 1 0 0 0 -0 -0 -0 -1 -1 -1 -2 -2 -2 -3 -3 -4 -5 -5 -5 -6 -6 -6 -6 -6 -6 -6 -6 -6 -5 -5 -6 -6 -6 -6 -6 -6 -6 -6 -6 -6 -6 -6
0 0 0 -0 -0 -1 -1 -1 -1 -1 -2 -2 -2 -2 -3 -4 -4 -4 -5 -5 -6 -6 -6 -6 -6 -6 -6 -6 -6 -6 -6 -6 -6 -6 -6 -6 -6 -6 -6 -6 -6 -7 -7 -7
0 -0 -0 -1 -1 -1 -2 -2 -2 -2 -2 -2 -3 -3 -4 -4 -5 -5 -5 -6 -6 -7 -7 -6 -6 -6 -6 -6 -6 -6 -6 -6 -6 -6 -6 -6 -6 -6 -6 -7 -7 -7 -7 -7
-1 -1 -1 -2 -2 -2 -2 -2 -2 -3 -3 -3 -3 -3 -4 -5 -5 -5 -6 -6 -7 -7 -7 -7 -7 -7 -7 -7 -7 -7 -7 -7 -7 -7 -7 -7 -7 -7 -7 -7 -7 -7 -7 -7
-2 -2 -2 -2 -2 -2 -3 -3 -3 -3 -3 -4 -4 -4 -5 -5 -5 -6 -6 -7 -7 -7 -7 -7 -7 -7 -7 -7 -7 -7 -7 -7 -7 -7 -7 -7 -7 -7 -7 -7 -7 -7 -7 -7
Wind_Speed
13 13 13 15 15 13 14 14 16 19 20 18 9 5 7 8 9 8 8 6 6 7 8 9 9 9 9 9 9 8 8 8 9 9 8 9 9 9 10 10 12 11 12 13
11 12 14 18 19 17 17 16 17 18 17 8 4 6 7 9 10 10 9 8 8 9 10 9 9 9 9 9 9 9 9 9 10 9 9 9 10 10 10 11 11 11 12 13
5 7 11 12 12 11 8 7 8 10 7 5 6 7 7 9 10 9 9 10 11 10 9 9 9 9 10 9 9 10 10 10 10 10 10 10 10 10 11 11 11 12 13 13
5 6 9 9 4 1 3 6 7 7 5 6 6 6 7 9 8 10 11 11 10 9 9 9 9 9 9 10 10 11 11 11 11 10 10 10 10 11 11 10 11 12 12 13
3 5 10 10 5 3 2 5 5 5 6 8 8 8 7 7 10 10 10 10 9 8 8 9 10 10 10 11 11 12 12 11 10 10 10 11 11 12 11 11 11 11 10 11
5 5 7 6 3 4 3 3 7 8 8 9 10 9 7 9 11 11 10 9 9 8 8 9 10 10 11 12 12 12 12 11 11 11 11 12 13 12 11 10 11 10 10 10
7 6 8 4 4 1 2 2 5 7 7 8 7 7 10 11 11 10 10 10 9 9 9 9 10 11 12 12 12 12 11 11 12 11 12 13 12 11 11 10 10 10 11 10
6 7 8 3 2 1 4 6 7 8 8 8 9 10 11 11 11 11 10 9 9 9 10 10 10 11 13 13 12 12 12 12 12 12 12 11 12 12 11 11 11 11 10 10
6 7 3 2 3 4 6 7 8 8 9 9 10 11 11 10 10 10 10 9 9 10 11 11 10 10 14 14 13 12 12 13 12 12 11 11 12 13 12 10 10 10 9 10
6 6 8 9 8 8 8 8 9 9 9 9 10 10 10 10 10 10 9 9 9 11 12 13 12 11 12 14 13 13 13 13 11 12 12 12 10 10 10 10 10 11 11 11
9 10 10 6 7 10 10 10 10 10 9 8 9 10 9 9 10 9 9 9 10 11 13 15 14 13 13 13 13 13 13 12 11 11 12 12 11 10 12 10 13 13 11 10
9 7 7 9 9 10 10 9 9 9 9 8 7 9 9 9 9 9 11 11 12 13 14 15 15 15 14 12 12 12 12 11 10 10 11 11 12 13 16 18 23 24 22 19
6 7 7 9 9 8 7 8 8 8 8 8 8 8 9 9 9 10 12 13 14 15 16 16 16 16 14 12 11 11 12 13 11 11 12 12 12 13 14 15 19 20 21 22
6 6 7 7 8 7 6 6 6 7 7 7 8 8 9 11 11 12 13 14 15 17 17 16 16 16 14 12 12 12 12 15 16 12 12 12 12 13 13 14 14 11 13 18
5 5 7 8 7 6 5 5 7 8 8 9 9 10 11 12 13 14 14 15 16 16 15 15 17 18 14 13 12 13 12 11 12 12 12 12 12 13 12 13 13 12 10 11
6 6 7 7 7 6 6 7 7 8 9 10 11 11 12 13 14 15 14 13 14 16 17 16 18 17 14 13 12 11 11 20 19 14 13 12 12 12 12 12 12 11 11 9
4 5 5 6 7 7 7 7 8 9 10 12 13 13 13 14 15 15 14 13 13 16 16 16 17 15 13 12 12 11 12 14 21 16 12 12 12 12 12 12 12 11 10 10
5 6 6 7 8 9 9 9 9 10 11 13 14 13 13 14 16 17 16 15 15 16 15 15 14 14 13 13 12 11 12 12 12 13 13 12 13 12 12 12 12 12 10 9
6 7 8 8 9 9 9 10 11 11 11 12 13 13 13 14 14 15 15 15 17 19 16 12 22 18 13 15 18 11 12 14 14 13 12 16 15 12 11 11 11 10 9 7
7 8 9 10 10 10 11 12 12 12 12 11 12 14 15 15 13 14 15 15 14 13 14 17 17 13 12 13 20 12 13 14 14 13 12 12 12 12 11 11 10 9 8 7
9 10 11 11 12 12 12 12 12 13 13 11 12 15 16 16 13 13 14 16 14 12 14 22 15 12 13 16 21 14 14 13 13 13 12 12 12 12 11 9 9 8 7 6
9 10 11 11 12 13 11 10 11 13 14 13 13 13 14 15 14 13 12 13 14 19 15 11 11 18 22 25 15 14 13 13 12 11 11 11 11 11 10 9 8 7 6 4
10 11 12 12 13 13 13 11 12 12 14 14 14 14 15 14 11 12 15 11 10 20 17 12 20 29 31 19 13 13 13 13 12 11 11 11 10 10 9 9 7 5 4 3
12 13 13 13 12 13 16 15 13 11 12 12 12 13 13 12 11 9 10 18 22 24 15 19 29 30 28 14 12 12 12 12 11 10 10 10 10 9 8 7 5 4 3 2
13 13 13 12 12 12 14 13 11 11 11 10 10 10 9 8 10 10 10 12 20 22 14 19 27 28 19 12 12 12 11 11 12 11 10 10 9 8 7 5 4 3 2 1
12 12 12 12 11 11 10 9 10 9 9 10 9 8 7 7 9 10 10 11 14 20 15 13 15 18 14 12 12 12 11 12 12 10 10 9 8 7 5 4 3 2 1 0
12 11 10 9 9 9 8 8 9 9 8 9 11 9 8 8 8 9 11 10 11 12 12 12 13 13 13 12 12 11 11 10 10 9 9 8 7 5 4 4 3 2 1 0
Wind_Direction
272 285 292 288 281 271 262 261 266 274 280 292 314 15 20 8 356 342 321 317 329 329 323 318 318 320 324 320 314 310 303 292 280 273 271 272 271 268 263 257 253 247 244 243
278 279 282 279 272 266 263 260 261 271 279 296 43 34 10 354 335 317 314 325 334 329 322 320 321 321 320 313 310 311 305 295 288 282 275 271 269 269 267 263 258 252 247 245
280 303 306 277 266 255 240 244 260 272 290 0 15 16 354 328 311 318 337 340 330 323 324 324 321 318 313 310 314 312 304 297 292 285 279 275 272 271 267 265 261 256 253 248
287 308 254 253 297 318 300 298 302 300 333 24 20 352 322 310 337 351 340 330 324 324 324 320 317 314 311 314 311 304 298 294 291 289 285 282 278 275 272 267 262 258 255 250
247 265 277 278 296 345 328 293 318 342 12 3 347 333 315 343 359 339 327 322 320 321 318 316 311 309 311 308 303 300 297 295 296 296 293 290 284 280 276 272 267 260 256 250
221 236 252 281 71 49 16 290 29 23 360 345 346 325 310 341 335 326 323 320 318 315 312 309 306 310 309 304 301 300 301 303 304 302 297 293 289 286 283 277 274 269 263 255
232 243 259 283 134 85 258 296 4 351 341 340 324 298 310 325 323 318 312 310 312 312 310 304 307 310 304 301 299 300 304 305 302 298 294 293 293 290 288 284 280 274 271 264
201 220 251 135 119 277 301 341 346 349 348 333 318 314 317 317 316 315 313 313 315 312 305 302 304 304 301 300 300 303 303 301 299 297 297 298 294 293 289 286 283 281 278 275
211 223 280 69 331 330 0 353 352 346 337 329 318 314 315 315 314 313 310 309 309 305 302 300 300 301 302 303 304 304 302 299 298 297 296 294 294 294 293 289 285 284 280 280
281 286 315 325 336 360 4 354 344 337 330 323 313 314 315 313 310 307 303 305 307 306 303 302 303 302 299 303 304 301 299 299 298 298 298 295 292 289 289 287 286 285 282 281
276 287 299 315 356 354 349 344 336 329 323 319 316 312 309 305 303 302 303 303 303 302 302 303 305 304 302 301 300 298 296 297 297 295 295 296 292 289 289 279 279 284 281 275
274 308 318 322 341 345 338 333 330 326 320 317 309 302 301 298 298 301 304 305 306 304 303 304 305 302 300 298 298 299 301 299 297 296 295 294 295 295 287 285 291 290 287 282
304 333 326 322 331 338 330 326 325 318 310 308 303 297 299 300 303 304 305 306 305 304 302 301 301 300 301 302 302 299 298 298 297 294 294 294 294 296 298 298 294 292 292 291
342 340 317 320 321 327 328 322 314 305 300 296 298 301 303 301 301 301 300 300 300 300 299 299 301 302 305 304 301 296 295 298 298 293 291 291 292 293 294 297 300 297 294 294
335 329 305 305 308 312 311 308 306 301 300 301 302 302 301 300 298 298 297 297 298 299 301 304 304 304 304 301 297 294 296 296 293 291 289 289 290 291 291 290 292 294 294 293
316 309 301 300 299 301 300 299 297 297 299 300 301 299 296 293 293 295 295 298 305 305 304 302 301 301 302 300 297 298 297 297 300 296 294 292 291 291 291 290 290 289 288 285
287 291 295 297 297 295 292 289 290 293 297 298 297 296 297 297 297 298 301 301 297 296 297 298 299 299 299 298 298 300 297 297 298 297 293 293 292 290 289 287 286 286 283 279
260 271 277 279 283 287 288 288 288 290 291 291 293 294 295 299 301 301 301 303 302 300 297 295 295 301 300 299 299 298 296 295 294 294 294 293 292 289 288 286 285 286 286 285
268 273 275 276 276 279 281 284 285 285 286 290 292 294 294 293 293 295 302 305 305 305 304 299 307 311 302 302 307 299 297 297 296 295 294 294 295 291 289 289 288 287 285 282
277 278 278 278 278 276 278 280 282 286 288 290 292 294 295 294 294 298 300 298 294 292 296 303 307 304 303 303 307 301 299 297 297 297 296 294 294 294 293 291 288 285 282 278
274 275 277 278 278 275 273 278 284 289 292 292 290 292 293 294 294 296 299 302 299 294 300 307 312 306 307 308 308 304 300 298 298 298 298 297 296 297 297 294 290 287 283 279
274 275 275 277 279 281 279 277 281 287 292 292 289 288 291 295 295 293 286 289 298 305 311 306 306 307 313 312 307 304 301 299 298 298 297 298 299 300 298 294 290 287 283 279
278 278 278 278 279 283 285 283 282 283 285 285 286 288 288 288 291 295 300 299 302 309 313 305 309 313 314 315 308 305 303 301 301 301 302 302 301 300 298 297 294 290 283 275
280 279 277 276 278 282 284 284 279 276 274 276 278 278 280 288 289 281 284 303 312 311 310 309 314 316 318 315 308 306 305 305 304 303 303 301 299 298 298 298 296 292 285 270
275 276 276 276 276 277 278 279 280 279 278 279 276 274 273 273 284 296 299 303 309 312 310 312 315 316 317 309 309 309 308 307 306 307 305 305 304 305 305 302 298 296 291 271
276 277 276 272 272 275 277 277 279 278 278 284 286 283 281 282 288 295 298 300 302 310 313 310 311 313 314 312 311 310 310 310 309 308 307 309 310 309 310 313 311 310 305 283
279 279 280 280 276 271 271 271 272 273 274 281 288 289 289 291 293 296 298 301 305 308 308 310 312 313 313 312 311 311 310 310 309 310 312 312 310 310 313 316 319 324 337 87
Height
1506 1501 1500 1499 1498 1497 1498 1497 1498 1487 1483 1476 1474 1474 1473 1473 1472 1471 1470 1468 1466 1464 1462 1459 1456 1452 1448 1444 1440 1436 1431 1427 1422 1418 1413 1409 1404 1400 1396 1392 1388 1385 1382 1379
1506 1501 1498 1495 1489 1488 1488 1486 1484 1481 1478 1472 1472 1472 1472 1472 1471 1470 1467 1465 1463 1460 1458 1454 1451 1447 1443 1438 1434 1430 1426 1421 1416 1411 1406 1401 1397 1392 1387 1383 1379 1376 1372 1369
1511 1502 1500 1496 1480 1477 1477 1475 1477 1479 1475 1471 1472 1472 1472 1472 1470 1467 1465 1462 1460 1457 1454 1450 1446 1442 1438 1433 1429 1425 1420 1414 1409 1404 1399 1394 1389 1383 1378 1374 1370 1366 1363 1360
1512 1509 1513 1488 1472 1471 1473 1473 1473 1472 1471 1471 1472 1472 1472 1470 1468 1465 1463 1460 1456 1453 1449 1445 1442 1438 1433 1428 1423 1418 1413 1408 1403 1397 1391 1386 1380 1375 1370 1365 1361 1357 1353 1350
1513 1511 1499 1481 1473 1472 1474 1474 1472 1471 1471 1471 1470 1469 1469 1468 1465 1463 1460 1456 1453 1449 1445 1441 1437 1433 1428 1422 1417 1412 1407 1401 1396 1390 1384 1378 1372 1366 1361 1357 1352 1348 1344 1341
1509 1510 1506 1481 1476 1473 1476 1478 1474 1472 1472 1471 1469 1471 1468 1466 1463 1460 1456 1452 1448 1444 1440 1436 1432 1427 1422 1416 1411 1406 1400 1394 1388 1383 1376 1370 1364 1359 1354 1349 1344 1340 1336 1333
1507 1505 1491 1475 1475 1474 1482 1480 1474 1472 1471 1471 1470 1469 1464 1461 1458 1455 1452 1448 1443 1439 1435 1431 1427 1422 1416 1410 1405 1399 1393 1386 1380 1374 1369 1362 1357 1351 1346 1341 1336 1332 1327 1324
1498 1501 1493 1474 1474 1477 1477 1472 1471 1469 1469 1467 1465 1463 1460 1457 1453 1450 1446 1442 1439 1434 1430 1426 1421 1416 1409 1403 1398 1392 1385 1378 1372 1366 1361 1355 1349 1344 1339 1334 1329 1324 1319 1315
1481 1481 1472 1471 1472 1472 1471 1470 1469 1468 1466 1464 1461 1458 1455 1452 1448 1445 1441 1438 1434 1429 1424 1419 1415 1410 1403 1396 1390 1383 1376 1370 1364 1358 1353 1348 1342 1336 1331 1327 1322 1316 1312 1307
1476 1470 1469 1470 1470 1470 1469 1468 1466 1465 1463 1460 1457 1454 1451 1447 1444 1440 1437 1433 1428 1423 1418 1412 1407 1403 1397 1389 1383 1376 1369 1363 1357 1351 1345 1340 1335 1330 1325 1320 1315 1310 1305 1300
1473 1470 1469 1468 1468 1467 1466 1464 1462 1461 1459 1456 1453 1450 1447 1443 1440 1436 1432 1428 1423 1418 1412 1405 1399 1394 1388 1382 1376 1368 1362 1355 1349 1344 1338 1332 1327 1323 1318 1313 1310 1304 1299 1294
1472 1470 1470 1468 1467 1465 1463 1461 1460 1457 1454 1452 1449 1446 1443 1439 1435 1432 1427 1422 1417 1411 1405 1398 1392 1385 1379 1374 1369 1361 1354 1348 1342 1336 1330 1325 1319 1313 1309 1306 1301 1297 1293 1289
1468 1467 1466 1465 1464 1463 1461 1458 1456 1453 1450 1448 1445 1442 1439 1435 1431 1426 1421 1416 1410 1404 1397 1390 1383 1377 1372 1367 1361 1354 1347 1341 1334 1329 1323 1318 1312 1307 1300 1296 1293 1289 1285 1281
1465 1464 1463 1462 1461 1459 1457 1454 1452 1449 1447 1444 1441 1438 1434 1430 1425 1420 1415 1409 1403 1396 1389 1383 1376 1369 1364 1358 1352 1346 1340 1333 1328 1322 1317 1311 1306 1301 1295 1289 1284 1279 1277 1273
1463 1462 1461 1459 1457 1455 1453 1451 1449 1446 1443 1440 1437 1433 1429 1424 1418 1412 1407 1402 1395 1389 1382 1375 1368 1361 1356 1350 1343 1337 1331 1325 1320 1314 1310 1305 1299 1294 1289 1284 1278 1273 1268 1265
1459 1458 1456 1455 1453 1452 1450 1447 1445 1441 1438 1435 1431 1427 1422 1417 1411 1405 1399 1394 1388 1380 1373 1366 1359 1353 1347 1341 1335 1329 1323 1318 1313 1308 1302 1297 1292 1287 1282 1277 1272 1267 1263 1259
1455 1454 1453 1452 1450 1448 1446 1443 1440 1437 1433 1429 1424 1420 1414 1409 1403 1397 1392 1387 1380 1373 1366 1359 1351 1345 1339 1334 1328 1321 1315 1310 1305 1301 1295 1290 1285 1280 1275 1270 1265 1261 1257 1254
1452 1451 1450 1449 1446 1443 1440 1438 1435 1431 1427 1423 1418 1413 1407 1402 1396 1389 1383 1376 1369 1362 1357 1351 1345 1338 1332 1326 1320 1314 1309 1303 1298 1293 1288 1283 1278 1273 1269 1264 1259 1255 1251 1248
1449 1448 1446 1444 1442 1439 1435 1432 1428 1425 1421 1416 1411 1406 1400 1395 1389 1382 1376 1369 1361 1353 1346 1343 1337 1331 1324 1319 1314 1307 1302 1297 1292 1286 1281 1276 1271 1267 1262 1257 1253 1249 1246 1243
1445 1444 1442 1439 1436 1434 1430 1426 1422 1418 1414 1410 1404 1398 1392 1386 1381 1375 1368 1361 1355 1349 1342 1336 1329 1323 1317 1312 1307 1301 1296 1290 1285 1280 1275 1270 1265 1260 1256 1251 1247 1244 1240 1238
1441 1439 1436 1433 1430 1427 1424 1420 1416 1410 1406 1402 1397 1391 1384 1378 1373 1367 1360 1352 1346 1342 1336 1329 1323 1317 1311 1305 1300 1295 1289 1284 1279 1273 1268 1264 1259 1254 1250 1246 1242 1238 1236 1233
1435 1433 1430 1427 1423 1419 1416 1413 1408 1403 1398 1393 1388 1383 1377 1370 1364 1359 1354 1348 1341 1336 1329 1323 1317 1311 1305 1300 1294 1288 1283 1278 1273 1268 1263 1258 1253 1248 1244 1240 1237 1234 1231 1229
1429 1426 1422 1418 1415 1410 1406 1402 1399 1394 1389 1384 1380 1375 1369 1364 1358 1352 1345 1340 1335 1329 1323 1317 1311 1305 1299 1294 1288 1282 1277 1272 1267 1262 1257 1252 1248 1244 1239 1236 1233 1230 1227 1226
1420 1417 1413 1409 1405 1401 1395 1391 1388 1384 1380 1376 1372 1368 1363 1356 1350 1346 1341 1334 1329 1323 1317 1310 1305 1299 1293 1287 1282 1277 1271 1266 1261 1257 1252 1247 1243 1239 1236 1232 1229 1226 1224 1223
1411 1407 1403 1399 1395 1391 1386 1382 1379 1375 1371 1367 1363 1360 1356 1351 1345 1339 1334 1328 1322 1316 1310 1304 1299 1293 1287 1282 1277 1271 1266 1261 1257 1252 1247 1243 1239 1236 1232 1229 1226 1224 1222 1221
1401 1397 1394 1390 1386 1382 1378 1374 1370 1366 1363 1359 1355 1351 1347 1343 1338 1333 1327 1322 1316 1311 1305 1298 1293 1287 1282 1277 1272 1267 1262 1257 1252 1248 1243 1239 1236 1232 1229 1226 1224 1222 1221 1220
1391 1387 1384 1380 1376 1374 1370 1367 1363 1359 1356 1352 1347 1343 1340 1335 1331 1326 1321 1315 1310 1305 1299 1293 1288 1283 1277 1272 1267 1262 1257 1253 1248 1244 1240 1236 1232 1229 1227 1224 1222 1221 1220 1220